Waarnemingen

Advertentie
Mijn weer
Gaddede A, Zweden (2219): temperatuur & dauwpunt: 14.11.2018 12:00:00 - 20.11.2018 12:00:00 (CET)Gaddede A, Zweden (2219): windsnelheid & windstoten: 14.11.2018 12:00:00 - 20.11.2018 12:00:00 (CET)Gaddede A, Zweden (2219): windrichting: 14.11.2018 12:00:00 - 20.11.2018 12:00:00 (CET)Gaddede A, Zweden (2219): luchtdruk: 14.11.2018 12:00:00 - 20.11.2018 12:00:00 (CET)Gaddede A, Zweden (2219): zicht: 14.11.2018 12:00:00 - 20.11.2018 12:00:00 (CET)Gaddede A, Zweden (2219): neerslag: 14.11.2018 12:00:00 - 20.11.2018 12:00:00 (CET)
Datum & Tijd tt [°C] td [°C] ff [km/u] ff [kn] fx [km/u] fx [kn] dd ppp [hPa] vv [km] rr [mm]
20.11.2018 12:00:00 0,3 0,3 7 4 13 7 NW 1035,7 0,4 0,0
20.11.2018 11:00:00 0,6 0,6 5 3 15 8 WNW 1036,1 12 0,0
20.11.2018 10:00:00 0,5 0,5 6 3 19 10 WNW 1035,3 1,5 -
20.11.2018 09:00:00 0,4 0,4 11 6 25 13 NNW 1035,4 14 0,0
20.11.2018 08:00:00 0,4 0,4 8 5 24 13 WNW 1035,4 2,0 0,0
20.11.2018 07:00:00 0,3 0,3 6 3 19 10 NW 1035,1 0,5 0,0
20.11.2018 06:00:00 0,1 0,1 10 6 21 11 WNW 1035,1 0,4 -
20.11.2018 05:00:00 -0,1 -0,1 13 7 23 12 WNW 1034,8 3,7 -
20.11.2018 04:00:00 -0,7 -0,7 12 6 23 13 WNW 1034,8 7 -
20.11.2018 03:00:00 -1,4 -1,5 12 7 29 16 WNW 1035,0 10 -
20.11.2018 02:00:00 -1,9 -2,5 17 9 31 17 WNW 1035,3 13 -
20.11.2018 01:00:00 -3,8 -4,8 13 7 30 16 NW 1035,8 12 -
20.11.2018 00:00:00 -3,6 -5,1 15 8 33 18 NW 1036,3 16 -
19.11.2018 23:00:00 -2,4 -5,2 17 9 32 17 NNW 1036,2 13 -
19.11.2018 22:00:00 -2,0 -5,2 13 7 24 13 NNW 1036,5 13 -
19.11.2018 21:00:00 -2,1 -5,4 7 4 16 9 NW 1036,4 15 -
19.11.2018 20:00:00 -3,2 -5,8 6 3 12 7 NNW 1036,9 16 -
19.11.2018 19:00:00 -5,9 -6,7 4 2 8 4 O 1037,4 14 -
19.11.2018 18:00:00 -6,5 -7,4 3 2 7 4 O 1038,0 12 -
19.11.2018 17:00:00 -6,3 -7,1 4 2 9 5 OZO 1038,4 13 -
19.11.2018 16:00:00 -7,1 -7,9 4 2 7 4 OZO 1039,1 8 -
19.11.2018 15:00:00 -6,7 -7,4 3 2 5 3 O 1039,2 12 -
19.11.2018 14:00:00 -5,7 -6,4 1 1 5 3 W 1039,4 15 -
19.11.2018 13:00:00 -5,1 -6,1 3 2 4 2 OZO 1039,6 11 -
19.11.2018 12:00:00 -6,2 -6,7 0 0 3 1 ZZO 1040,3 47 -
19.11.2018 11:00:00 -6,7 -7,2 1 1 6 4 NW 1041,0 50 -
19.11.2018 10:00:00 -7,1 -7,9 5 3 8 4 O 1041,4 50 -
19.11.2018 09:00:00 -7,7 -8,6 3 2 8 4 O 1041,6 50 -
19.11.2018 08:00:00 -8,0 -8,9 3 1 6 4 O 1041,9 47 -
19.11.2018 07:00:00 -8,0 -8,9 3 2 6 3 O 1041,7 40 -
19.11.2018 06:00:00 -8,0 -8,9 2 1 8 5 O 1041,7 38 -
19.11.2018 05:00:00 -7,9 -8,8 5 3 9 5 O 1042,1 34 -
19.11.2018 04:00:00 -7,3 -8,0 6 3 8 4 O 1042,5 14 -
19.11.2018 03:00:00 -7,3 -8,1 5 3 8 4 O 1042,7 22 -
19.11.2018 02:00:00 -7,2 -8,1 4 2 8 4 O 1043,0 13 -
19.11.2018 01:00:00 -6,9 -7,6 3 2 5 3 O 1043,1 11 -
19.11.2018 00:00:00 -6,9 -7,7 3 2 7 4 O 1043,6 13 -
18.11.2018 23:00:00 -5,8 -6,2 2 1 5 3 O 1044,0 10 -
18.11.2018 22:00:00 -5,2 -5,3 3 1 5 3 O 1043,8 15 -
18.11.2018 21:00:00 -5,8 -6,5 1 1 6 3 W 1044,5 14 -
18.11.2018 20:00:00 -3,7 -4,4 2 1 13 7 ONO 1044,4 14 -
18.11.2018 19:00:00 -4,3 -4,7 3 1 10 5 NO 1044,3 13 -
18.11.2018 18:00:00 -3,9 -4,6 1 1 7 4 WNW 1044,4 12 -
18.11.2018 17:00:00 -2,0 -3,6 3 1 13 7 W 1044,3 10 -
18.11.2018 16:00:00 -1,4 -3,4 6 4 13 7 O 1044,7 19 -
18.11.2018 15:00:00 -1,6 -3,5 5 3 18 10 ONO 1045,2 17 -
18.11.2018 14:00:00 -0,6 -3,0 3 2 10 5 ZO 1045,1 15 -
18.11.2018 13:00:00 0,1 -2,8 3 1 21 11 ZZO 1045,5 15 -
18.11.2018 12:00:00 0,5 -2,7 12 6 22 12 OZO 1045,5 15 -
18.11.2018 11:00:00 0,3 -2,7 9 5 18 10 OZO 1046,1 18 -
18.11.2018 10:00:00 0,1 -2,8 11 6 21 11 OZO 1046,3 17 -
18.11.2018 09:00:00 0,5 -2,5 9 5 18 10 OZO 1046,4 17 -
18.11.2018 08:00:00 0,3 -2,2 5 3 15 8 O 1046,5 13 -
18.11.2018 07:00:00 -1,1 -2,5 8 4 13 7 O 1045,9 12 -
18.11.2018 06:00:00 -1,7 -2,5 8 4 13 7 ONO 1046,7 15 -
18.11.2018 05:00:00 -1,5 -2,6 7 4 14 7 ONO 1046,6 13 -
18.11.2018 04:00:00 -2,1 -2,5 6 4 11 6 O 1046,3 11 -
18.11.2018 03:00:00 -2,1 -2,5 7 4 11 6 O 1046,0 16 -
18.11.2018 02:00:00 -2,1 -2,2 5 3 10 5 O 1045,7 13 -
18.11.2018 01:00:00 -1,7 -1,8 5 3 9 5 O 1045,3 8 -
18.11.2018 00:00:00 -1,5 -1,8 3 1 9 5 O 1044,9 13 -
17.11.2018 23:00:00 -0,1 -0,2 3 2 11 6 ZZW 1044,3 12 -
17.11.2018 22:00:00 0,2 -0,1 5 3 18 10 W 1043,7 25 -
17.11.2018 21:00:00 0,8 -0,2 4 2 19 10 NNW 1043,4 13 -
17.11.2018 20:00:00 1,3 0,3 7 4 22 12 W 1042,3 42 -
17.11.2018 19:00:00 2,4 0,5 5 3 32 18 W 1042,1 27 -
17.11.2018 18:00:00 2,7 0,9 13 7 27 15 WNW 1041,5 50 -
17.11.2018 17:00:00 3,0 0,9 11 6 23 13 WNW 1041,3 50 -
17.11.2018 16:00:00 3,1 1,0 14 8 26 14 WNW 1040,5 50 -
17.11.2018 15:00:00 3,5 2,0 10 5 26 14 WNW 1040,3 39 -
17.11.2018 14:00:00 3,7 2,1 13 7 31 17 WNW 1039,5 35 -
17.11.2018 13:00:00 4,0 1,9 12 7 29 16 WNW 1039,3 37 -
17.11.2018 12:00:00 3,9 1,9 13 7 33 18 W 1038,8 43 -
17.11.2018 11:00:00 3,9 2,3 14 7 31 17 W 1037,8 34 -
17.11.2018 10:00:00 3,8 2,2 16 8 38 21 WNW 1037,2 34 -
17.11.2018 09:00:00 3,9 1,9 15 8 49 27 WNW 1036,8 39 -
17.11.2018 08:00:00 4,0 1,9 22 12 42 23 WNW 1034,6 41 -
17.11.2018 07:00:00 3,9 1,9 22 12 52 28 W 1034,7 38 -
17.11.2018 06:00:00 4,2 1,7 22 12 50 27 W 1034,2 50 -
17.11.2018 05:00:00 4,3 2,6 22 12 43 23 W 1033,5 45 0,0
17.11.2018 04:00:00 4,7 3,0 19 10 47 25 W 1032,9 36 -
17.11.2018 03:00:00 4,5 3,0 22 12 43 23 W 1032,3 18 -
17.11.2018 02:00:00 4,5 2,4 20 11 41 22 WNW 1031,7 48 -
17.11.2018 01:00:00 4,4 2,9 18 10 44 24 W 1031,6 26 -
17.11.2018 00:00:00 4,2 3,0 21 11 47 25 W 1030,7 20 -
16.11.2018 23:00:00 4,2 3,0 16 9 46 25 W 1031,0 16 -
16.11.2018 22:00:00 4,2 2,2 16 9 40 21 W 1030,5 24 -
16.11.2018 21:00:00 4,5 2,5 18 10 37 20 W 1029,9 22 -
16.11.2018 20:00:00 4,8 3,8 15 8 38 20 W 1028,8 23 -
16.11.2018 19:00:00 4,8 4,1 16 9 34 19 W 1028,0 21 -
16.11.2018 18:00:00 4,7 4,1 14 7 30 16 W 1027,6 25 -
16.11.2018 17:00:00 4,3 4,0 14 8 34 18 W 1027,1 25 -
16.11.2018 16:00:00 3,9 3,8 13 7 31 17 W 1026,7 35 0,0
16.11.2018 15:00:00 3,6 3,5 8 5 32 17 W 1026,6 19 -
16.11.2018 14:00:00 4,0 3,3 9 5 20 11 W 1025,8 10 -
16.11.2018 13:00:00 4,0 2,0 4 2 12 6 W 1025,2 35 -
16.11.2018 12:00:00 3,2 1,7 2 1 13 7 W 1025,1 14 -
16.11.2018 11:00:00 1,2 1,2 4 2 7 4 ZO 1025,0 16 -
16.11.2018 10:00:00 0,7 0,7 4 2 8 5 O 1024,2 14 0,0
16.11.2018 09:00:00 -0,9 -0,9 2 1 10 6 ZW 1023,4 0,7 0,0
16.11.2018 08:00:00 -1,6 -1,6 6 3 9 5 O 1022,7 15 -
16.11.2018 07:00:00 -1,5 -1,5 3 2 11 6 ONO 1022,2 16 0,0
16.11.2018 06:00:00 -0,8 -0,8 2 1 11 6 OZO 1022,2 0,2 0,0
16.11.2018 05:00:00 -0,4 -0,5 2 1 23 13 ONO 1021,3 23 -
16.11.2018 04:00:00 5,7 3,4 13 7 26 14 O 1020,1 14 0,0
16.11.2018 03:00:00 1,0 0,7 3 2 20 11 ZZO 1021,5 1,6 0,0
16.11.2018 02:00:00 7,8 3,6 10 6 19 10 O 1019,7 25 -
16.11.2018 01:00:00 0,8 0,8 3 2 10 5 W 1022,0 0,8 -
16.11.2018 00:00:00 0,3 0,3 4 2 11 6 O 1022,4 4,4 -
15.11.2018 23:00:00 2,1 2,1 3 1 7 4 ZO 1022,4 16 -
15.11.2018 22:00:00 3,3 2,6 4 2 19 10 ONO 1021,8 35 -
15.11.2018 21:00:00 5,3 5,3 4 2 13 7 O 1021,5 31 -
15.11.2018 20:00:00 4,3 4,3 4 2 11 6 W 1021,9 47 -
15.11.2018 19:00:00 4,7 4,6 2 1 7 4 NNO 1021,0 48 -
15.11.2018 18:00:00 5,8 5,5 2 1 19 10 O 1020,2 50 -
15.11.2018 17:00:00 5,7 5,6 6 4 16 9 WNW 1019,7 50 -
15.11.2018 16:00:00 5,3 5,3 8 4 16 9 WNW 1019,3 50 -
15.11.2018 15:00:00 4,5 4,5 6 4 18 10 W 1019,3 50 -
15.11.2018 14:00:00 4,8 4,8 3 2 13 7 W 1018,4 38 0,0
15.11.2018 13:00:00 3,8 3,8 3 2 6 4 WNW 1018,1 9 -
15.11.2018 12:00:00 2,2 2,1 3 2 7 4 OZO 1018,2 3,7 0,0
15.11.2018 11:00:00 0,6 0,6 5 3 12 7 O 1017,9 13 -
15.11.2018 10:00:00 0,0 0,0 3 2 13 7 OZO 1017,2 20 0,0
15.11.2018 09:00:00 0,1 0,0 4 2 10 5 ZW 1016,4 37 0,0
15.11.2018 08:00:00 -0,9 -0,9 5 3 9 5 W 1016,3 28 0,0
15.11.2018 07:00:00 -1,4 -1,4 3 2 9 5 ZZO 1016,2 0,4 0,0
15.11.2018 06:00:00 -1,5 -1,5 4 2 11 6 W 1016,3 3,4 0,0
15.11.2018 05:00:00 -1,3 -1,3 4 2 14 7 WNW 1015,1 0,2 0,0
15.11.2018 04:00:00 -1,2 -1,2 3 1 13 7 ZO 1015,0 0,1 0,0
15.11.2018 03:00:00 1,2 0,0 4 2 23 12 O 1014,6 14 -
15.11.2018 02:00:00 1,6 -0,3 9 5 18 10 ONO 1015,1 22 -
15.11.2018 01:00:00 0,7 -0,3 9 5 14 8 O 1015,5 18 -
15.11.2018 00:00:00 0,3 -0,1 6 4 15 8 O 1015,9 17 0,0
14.11.2018 23:00:00 0,7 0,6 7 4 10 6 O 1015,7 26 -
14.11.2018 22:00:00 0,2 -0,2 1 1 13 7 NNW 1016,4 20 -
14.11.2018 21:00:00 2,1 -0,3 8 4 19 11 O 1015,8 21 0,0
14.11.2018 20:00:00 2,7 -0,9 10 5 24 13 O 1015,5 26 -
14.11.2018 19:00:00 2,7 -0,9 11 6 21 11 O 1015,2 26 -
14.11.2018 18:00:00 3,0 -0,8 14 8 22 12 O 1015,2 18 -
14.11.2018 17:00:00 2,8 -0,1 10 5 26 14 O 1016,1 18 -
14.11.2018 16:00:00 2,9 0,3 14 8 24 13 O 1015,8 15 -
14.11.2018 15:00:00 2,7 0,3 8 5 18 10 O 1016,4 14 -
14.11.2018 14:00:00 2,5 0,6 7 4 15 8 O 1016,6 13 -
14.11.2018 13:00:00 0,9 0,8 6 4 11 6 O 1017,3 14 -
14.11.2018 12:00:00 0,9 0,9 5 3 9 5 O 1017,6 16 -

tt = temperatuur
td = dauwpunt
ff = windsnelheid
fx = windstoten
dd = windrichting
ppp = luchtdruk
vv = zicht
rr = neerslag

Weerstations in de omgeving